This demonstration page uses our WeatherBlox Daily Observations layout. Learn more.

Left ArrowRight Arrow

39.01783, -85.05884

Hourly Observations for October 20, 2020

Temp ( °F °C ) Dew Point ( °F °C ) Humidity (%) Winds ( mph kmh ) Pressure ( in mb ) Visibility ( mi km ) Precip ( " mm )
12:52 am 00:52 Cloudy with Patchy Fog 53 11.7 51 10.6 93 93 N 5 7 30.09 1019 0.5 0.80467 0.001 0.001
1:52 am 01:52 Cloudy with Light Rain 53 11.7 51 10.6 93 93 N 5 7 30.08 1019 0.5 0.80467 0.02 0.508
2:31 am 02:31 Cloudy with Light Rain 53 11.7 51 10.6 93 93 NNE 3 6 30.08 1019 2 3.21868 0.17 4.318
2:52 am 02:52 Cloudy with Mist and Fog 54 12.2 52 11.1 93 93 N 6 9 30.07 1018 2 3.21868 0.17 4.318
3:09 am 03:09 Cloudy with Mist and Fog 53 11.7 52 11.1 96 96 N 8 13 30.08 1019 0.5 0.80467 0 0
3:52 am 03:52 Cloudy with Drizzle 53 11.7 51 10.6 93 93 N 9 15 30.07 1018 0.5 0.80467 0.001 0.001
4:04 am 04:04 Cloudy with Mist and Fog 53 11.7 51 10.6 93 93 N 6 9 30.08 1019 0.5 0.80467 0.001 0.001
4:52 am 04:52 Cloudy with Light Rain 52 11.1 50 10 93 93 N 10 17 30.08 1019 1 1.60934 0.01 0.254
5:06 am 05:06 Cloudy with Light Rain 52 11.1 50 10 93 93 N 7 11 30.1 1019 6 9.65604 0.001 0.001
5:52 am 05:52 Cloudy with Light Rain 51 10.6 49 9.4 92 92 N 9 15 30.09 1019 3 4.82802 0.01 0.254
6:41 am 06:41 Cloudy with Light Rain 50 10 47 8.3 89 89 N 12 19 30.14 1021 2.5 4.02335 0.03 0.762
6:52 am 06:52 Cloudy with Light Rain 50 10 47 8.3 89 89 N 8 13 30.12 1020 2.5 4.02335 0.04 1.016
7:26 am 07:26 Cloudy with Light Rain 49 9.4 47 8.3 93 93 N 8 13 30.15 1021 3 4.82802 0.01 0.254
7:52 am 07:52 Cloudy with Drizzle 49 9.4 47 8.3 93 93 N 7 11 30.14 1021 2.5 4.02335 0.01 0.254
8:01 am 08:01 Cloudy with Drizzle 49 9.4 47 8.3 93 93 N 8 13 30.17 1022 1.5 2.41401 0.001 0.001
8:13 am 08:13 Cloudy with Drizzle 49 9.4 47 8.3 93 93 N 7 11 30.17 1022 1.5 2.41401 0.001 0.001
8:52 am 08:52 Cloudy with Drizzle 49 9.4 47 8.3 93 93 N 8 13 30.17 1022 1.5 2.41401 0.01 0.254
9:12 am 09:12 Cloudy with Drizzle 49 9.4 47 8.3 93 93 NNE 7 11 30.19 1022 1.5 2.41401 0.001 0.001
9:52 am 09:52 Cloudy with Mist and Fog 50 10 48 8.9 93 93 NNE 9 15 30.19 1022 1.5 2.41401 0.01 0.254
10:16 am 10:16 Cloudy 50 10 47 8.3 89 89 NNE 9 15 30.21 1023 7 11.26538 0 0
10:52 am 10:52 Cloudy 50 10 48 8.9 93 93 NNE 10 17 30.2 1023 10 16.0934 0 0
11:39 am 11:39 Cloudy with Drizzle 51 10.6 49 9.4 92 92 NNE 8 13 30.22 1023 3 4.82802 0.001 0.001
11:52 am 11:52 Cloudy with Drizzle 51 10.6 49 9.4 92 92 NE 7 11 30.21 1023 1.5 2.41401 0.001 0.001
12:21 pm 12:21 Cloudy with Mist and Fog 51 10.6 49 9.4 92 92 ENE 8 13 30.22 1023 1.5 2.41401 0.001 0.001
12:52 pm 12:52 Cloudy with Mist and Fog 52 11.1 50 10 93 93 NE 6 9 30.19 1022 1.5 2.41401 0.001 0.001
12:53 pm 12:53 Cloudy with Mist and Fog 52 11.1 50 10 93 93 NE 6 9 30.2 1023 2 3.21868 0 0
1:52 pm 13:52 Cloudy with Mist and Fog 52 11.1 50 10 93 93 NE 7 11 30.17 1022 2 3.21868 0 0
2:52 pm 14:52 Cloudy with Mist and Fog 53 11.7 51 10.6 93 93 NE 7 11 30.16 1022 2 3.21868 0 0
3:52 pm 15:52 Cloudy with Mist and Fog 53 11.7 51 10.6 93 93 ENE 7 11 30.16 1021 1.5 2.41401 0 0
4:52 pm 16:52 Cloudy with Mist and Fog 54 12.2 52 11.1 93 93 E 6 9 30.15 1021 1.5 2.41401 0 0
5:52 pm 17:52 Cloudy with Mist and Fog 54 12.2 52 11.1 93 93 E 7 11 30.14 1021 1.5 2.41401 0 0
6:52 pm 18:52 Cloudy with Mist and Fog 54 12.2 52 11.1 93 93 E 5 7 30.14 1021 0.5 0.80467 0 0
7:52 pm 19:52 Cloudy with Mist and Fog 54 12.2 53 11.7 97 97 ESE 6 9 30.13 1020 0.5 0.80467 0 0
8:52 pm 20:52 Cloudy with Drizzle 55 12.8 53 11.7 93 93 ESE 6 9 30.12 1020 1.5 2.41401 0.001 0.001
9:27 pm 21:27 Cloudy with Mist and Fog 56 13.3 54 12.2 93 93 SE 8 13 30.12 1020 5 8.0467 0.001 0.001
9:52 pm 21:52 Cloudy with Mist and Fog 56 13.3 54 12.2 93 93 SE 9 15 30.1 1019 6 9.65604 0.001 0.001
10:04 pm 22:04 Cloudy with Mist and Fog 56 13.3 54 12.2 93 93 SE 8 13 30.11 1020 1.5 2.41401 0 0
10:52 pm 22:52 Cloudy with Mist and Fog 57 13.9 55 12.8 93 93 SSE 7 11 30.09 1019 1.5 2.41401 0 0
11:13 pm 23:13 Cloudy with Mist and Fog 58 14.4 56 13.3 93 93 S 6 9 30.11 1019 3 4.82802 0 0
11:17 pm 23:17 Cloudy with Mist and Fog 58 14.4 56 13.3 93 93 S 6 9 30.11 1019 3 4.82802 0 0
11:52 pm 23:52 Mostly Cloudy 58 14.4 56 13.3 93 93 S 7 11 30.1 1019 3 4.82802 0 0

Powered by AerisWeather